Flag for U.S.A. Weather past 2 weeks in Ontario, California, U.S.A.

Now
52 °F

Scattered clouds.


Feels Like: 52 °F
Forecast: 49 / 68 °F
Wind: No wind

Location: Ontario International Airport

Current Time: Jan 31, 2015 at 7:32:40 AM

Latest Report: Jan 31, 2015 at 6:53 AM


Visibility: 8 mi

Pressure: 29.86 "Hg

Humidity: 89%

Dew point: 49 °F

Location of OntarioLocation

Historic Weather in Ontario — Graph

°F

Ontario temperature yesterday

Maximum temperature yesterday: 66 °F (at 12:53 PM)
Minimum temperature yesterday: 56 °F (at 10:53 PM)
Average temperature yesterday: 61 °F

Past Weeks' High & Low Weather Summary

 TemperatureHumidityPressure
High81 °F (Jan 25, 12:53 PM)93% (Jan 20, 8:53 PM)30.25 "Hg (Jan 20, 8:53 PM)
Low45 °F (Jan 17, 3:53 AM)6% (Jan 23, 4:53 PM)29.82 "Hg (Jan 30, 2:53 PM)
Average62 °F46%30.06 "Hg
* Reported Jan 16 5:53 AM — Jan 31 5:53 AM, Ontario, Weather by CustomWeather, © 2014

Note: Actual official high and low records may vary slightly from our data, if they occured in-between our weather recording intervals... More about our weather records

Advertising

Ontario weather history for previous 24 hours

 ConditionsComfort  
Time TempWeatherWind HumidityBarometerVisibility
5:53 AM
Jan 31
52 °FPassing clouds.No wind93%29.85 "Hg8 mi
4:53 AM54 °FOvercast.No wind90%29.82 "Hg9 mi
3:53 AM55 °FOvercast.No wind83%29.82 "Hg10 mi
2:53 AM54 °FPartly cloudy.No wind86%29.83 "Hg10 mi
1:53 AM54 °FPartly cloudy.No wind86%29.84 "Hg10 mi
12:53 AM55 °FPassing clouds.No wind87%29.85 "Hg10 mi
11:53 PM
Jan 30
56 °FPassing clouds.3 mph84%29.86 "Hg10 mi
10:53 PM56 °FPassing clouds.No wind84%29.87 "Hg10 mi
9:53 PM58 °FPassing clouds.3 mph72%29.86 "Hg10 mi
8:53 PM58 °FPassing clouds.5 mph72%29.85 "Hg10 mi
7:53 PM59 °FPassing clouds.5 mph69%29.84 "Hg10 mi
6:53 PM60 °FPassing clouds.5 mph69%29.84 "Hg10 mi
5:53 PM61 °FLight rain. Passing clouds.No wind70%29.84 "Hg10 mi
4:53 PM63 °FPartly sunny.5 mph56%29.83 "Hg10 mi
3:53 PM65 °FOvercast.8 mph51%29.82 "Hg10 mi
2:53 PM66 °FMostly cloudy.7 mph50%29.82 "Hg10 mi
1:53 PM65 °FMostly cloudy.6 mph51%29.83 "Hg10 mi
12:53 PM66 °FCloudy.7 mph50%29.85 "Hg10 mi
11:53 AM64 °FMostly cloudy.7 mph52%29.88 "Hg10 mi
10:53 AM64 °FMostly cloudy.7 mph52%29.90 "Hg10 mi
9:53 AM63 °FMostly cloudy.3 mph58%29.90 "Hg10 mi
8:53 AM61 °FMostly cloudy.No wind65%29.90 "Hg10 mi
7:53 AM58 °FMore clouds than sun.5 mph75%29.90 "Hg10 mi
Weather by CustomWeather, © 2014

See weather overviewHow to use our weather pages